Regional Weather Roundup
Issued by NWS

Home | Current Version | Previous Version | Text Only | Print | Product List | Glossary Off
Versions: 1 2 3 4 5 6 7 8 9 10 11 12 13 14 15 16 17 18 19 20 21 22 23 24 25 26 27 28 29 30 31 32 33 34 35 36 37 38 39 40 41 42 43 44 45 46 47 48 49 50

000
ASUS43 KMPX 020110
RWRMN
WEATHER ROUNDUP FOR MINNESOTA
NATIONAL WEATHER SERVICE TWIN CITIES/CHANHASSEN MN
800 PM CDT WED OCT 01 2014


NOTE: "FAIR" INDICATES FEW OR NO CLOUDS BELOW 12,000 FEET WITH NO
SIGNIFICANT WEATHER AND/OR OBSTRUCTIONS TO VISIBILITY. N/A MEANS
CURRENT SKY AND/OR WEATHER CONDITIONS ARE NOT AVAILABLE.

MNZ060>063-068>070-020200-
   Twin Cities Metro

CITY           SKY/WX    TMP DP  RH WIND       PRES   REMARKS
TWIN CITIES    CLOUDY    57  56  96 SE7       29.81R FOG
ST PAUL        CLOUDY    57  56  96 SE5       29.82R FOG
CRYSTAL        CLOUDY    58  55  90 SE6       29.79S FOG
LAKEVILLE      CLOUDY    57  55  94 SE3       29.81R FOG
EDEN PRAIRIE   CLOUDY    58  57  97 SE7       29.80R FOG
SOUTH ST PAUL  CLOUDY    57  56  95 CALM      29.81R FOG
LAKE ELMO      CLOUDY    55  55 100 SE5       29.82S FOG
$$
MNZ001>005-007-008-013>017-022>024-027-028-020200-
   Northwest Minnesota

CITY           SKY/WX    TMP DP  RH WIND       PRES   REMARKS
BEMIDJI        CLOUDY    56  54  92 S7        29.73R
HALLOCK        MOCLDY    61  52  72 W9        29.65R
ROSEAU         CLOUDY    61  55  82 SW7       29.64R
WARROAD        CLOUDY    59  55  88 SW7       29.64R
THIEF RVR FALL CLOUDY    59  52  77 SW6       29.70R
CROOKSTON      MOCLDY    61  54  77 W8        29.71R
FOSSTON        CLOUDY    59  52  77 SW13      29.73R
DETROIT LAKES  CLOUDY    61  50  67 SW5       29.77R
PARK RAPIDS    CLOUDY    57  55  93 S8        29.76R
MAHNOMEN       CLOUDY    60  50  69 W10       29.74R
$$
MNZ006-009>011-018-025>026-020200-
   North Central Minnesota

CITY           SKY/WX    TMP DP  RH WIND       PRES   REMARKS
BAUDETTE       CLOUDY    57  53  86 S13       29.66R
FLAG ISLAND    CLOUDY    57  55  94 S9        29.61R
INTL FALLS     CLOUDY    53  50  89 S8        29.71R
WASKISH        CLOUDY    55  54  94 S3        29.70R
BIG FORK       CLOUDY    54  52  94 S7        29.75R
LONGVILLE      CLOUDY    54  54 100 S6        29.77R FOG
GRAND RAPIDS   CLOUDY    52  48  87 S12       29.77R
CRANE LAKE     CLOUDY    48  48 100 S7        29.75S
ORR            CLOUDY    48  46  93 S7        29.73R FOG
COOK           CLOUDY    50  48  93 S8        29.77R
WALKER         CLOUDY    54  53  96 SW5       29.76R FOG
$$
MNZ012-019>021-037-020200-
   Northeast Minnesota

CITY           SKY/WX    TMP DP  RH WIND       PRES   REMARKS
DULUTH         FOG       51  49  92 S8        29.80S VSB 1
ELY            CLOUDY    48  46  93 S8        29.78S
HIBBING        CLOUDY    51  49  92 S8        29.79R FOG
EVELETH        CLOUDY    50  48  93 S8        29.79  FOG
DULUTH HARBOR  DRIZZLE   54  52  94 S3        29.82R
TWO HARBORS    CLOUDY    48  45  87 S3        29.80R HAZE
SILVER BAY     FOG       46  46 100 CALM      29.80S VSB 1/2
GRAND MARAIS     N/A     50  48  93 E5        29.83R
G MARAIS ARPRT DRZL/FOG  46  43  87 S5        29.82R VSB<1/4
$$
MNZ029>031-032-039>041-046>048-054>057-064-020200-
   West Central Minnesota

CITY           SKY/WX    TMP DP  RH WIND       PRES   REMARKS
FERGUS FALLS   CLOUDY    61  46  59 W6        29.77R
WHEATON        CLEAR     57  48  72 NW3       29.80R
MORRIS         CLEAR     59  52  77 NW8       29.77R
ALEXANDRIA     PTCLDY    60  56  86 W8        29.79R
ELBOW LAKE     FAIR      58  50  74 NW3       29.77R
WADENA         MOCLDY    57  55  94 SW5       29.77R
GLENWOOD       CLEAR     61  57  88 SW3       29.79R
APPLETON       CLEAR     63  50  63 N7        29.77R
BENSON         PTCLDY    61  57  88 W3        29.77R
ORTONVILLE     CLEAR     63  50  63 NW7       29.78R
MADISON        PTCLDY    63  52  67 NW7       29.78R
WILLMAR        FAIR      61  55  82 S5        29.79R
$$
MNZ033>034-036-042>043-049>051-058-059-020200-
   Central Minnesota

CITY           SKY/WX    TMP DP  RH WIND       PRES   REMARKS
ST CLOUD       CLOUDY    58  54  86 SE7       29.80R
SAUK CENTRE    FAIR      55  54  94 E5        29.78R
PAYNESVILLE    PTCLDY    55  53  94 E5        29.78R
AITKIN         CLOUDY    55  50  82 S5        29.78R HAZE
PINE RIVER     CLOUDY    54  54 100 SE8       29.81R FOG
BRAINERD       CLOUDY    53  52  96 S6        29.79R FOG
STAPLES        PTCLDY    54  52  94 SE5       29.77R
LONG PRAIRIE   MOCLDY    54  52  94 SE3       29.79R
LITTLE FALLS   CLOUDY    55  52  88 SE6       29.79R
LITCHFIELD     MOCLDY    55  55 100 SE6       29.79R
BUFFALO        CLOUDY    57  54  89 CALM      29.81R
MAPLE LAKE     CLOUDY    58  56  94 SE6       29.80S
$$
MNZ037-044-045-052-053-020200-
   East Central Minnesota

CITY           SKY/WX    TMP DP  RH WIND       PRES   REMARKS
PRINCETON      CLOUDY    55  54  94 SE3       29.81S
MORA           CLOUDY    54  52  94 S5        29.83R FOG
CAMBRIDGE      CLOUDY    57  48  72 SE3       29.80S HAZE
RUSH CITY      CLOUDY    54  52  95 CALM      29.82R
MOOSE LAKE     CLOUDY    52  50  93 S6        29.80R FOG
HINCKLEY       CLOUDY    52  52 100 S6        29.82R FOG
CLOQUET        CLOUDY    52  48  87 S5        29.81R FOG
MCGREGOR       CLOUDY    52  50  93 S5        29.80R
$$
MNZ071>073-080-081-089-090-097-098-020200-
   Southwest Minnesota

CITY           SKY/WX    TMP DP  RH WIND       PRES   REMARKS
MONTEVIDEO     MOCLDY    63  57  82 SW3       29.78R
GRANITE FALLS  PTCLDY    59  57  94 CALM      29.78R
CANBY          PTCLDY    62  51  68 CALM      29.79R
MARSHALL       PTCLDY    63  55  77 CALM      29.77R
REDWOOD FALLS  MOCLDY    58  54  86 S6        29.76R
OLIVIA         PTCLDY    59  55  88 SE6       29.77R
PIPESTONE      PTCLDY    63  52  67 N6        29.79R
WINDOM         MOCLDY    64  61  88 SE6       29.79R
WORTHINGTON    MOCLDY    63  59  88 E5        29.79R
JACKSON        MOCLDY    63  59  88 SE3       29.79R
TRACY          MOCLDY    63  58  85 E3        29.78R
SLAYTON        MOCLDY    64  55  71 CALM      29.79R
$$
MNZ065>067-074>077-082>085-091>093-020200-
   South Central Minnesota

CITY           SKY/WX    TMP DP  RH WIND       PRES   REMARKS
MANKATO        CLOUDY    61  55  82 SE8       29.78F
NEW ULM        CLOUDY    61  59  94 NE6       29.80R
ST JAMES       MOCLDY    64  61  88 SE6       29.79S
FAIRMONT       MOCLDY    63  57  82 SE6       29.78S
GLENCOE        CLOUDY    59  58  95 SE5       29.79R FOG
FARIBAULT      CLOUDY    59  57  94 CALM      29.82R FOG
OWATONNA       PTCLDY    59  55  88 SE3       29.81S FOG
WASECA         MOCLDY    55  52  88 E3        29.82S FOG
ALBERT LEA       N/A     57  57 100 CALM      29.81R FOG
$$
MNZ078>079-086>088-094>096-020200-
   Southeast Minnesota

CITY           SKY/WX    TMP DP  RH WIND       PRES   REMARKS
ROCHESTER      CLOUDY    57  55  93 SE5       29.83S
RED WING       CLOUDY    57  55  94 SE5       29.81S FOG
STANTON        CLOUDY    60  57  90 CALM      29.80R FOG
DODGE CENTER   CLOUDY    59  57  94 E5        29.82S FOG
WINONA         CLOUDY    55  55 100 CALM      29.82S
AUSTIN         CLOUDY    59  57  94 CALM      29.81S FOG
PRESTON        CLOUDY    56  54  92 CALM      29.84R
$$
ABBREVIATIONS USED IN REMARKS
   TC - TEMPERATURES IN CELSIUS
  WCI - WIND CHILL INDEX
   HX - HEAT INDEX
  VSB - VISIBILITY
$$



USA.gov is the U.S. government's official web portal to all federal, state and local government web resources and services.